Columbus Municipal Airport
KOLU : now visible

Airfield :











YOU CAN JOIN US ON...

 
LOGIN :

Register | Disclaimer

   EN    FR    IT 

 









Legend :    VFR   Marginal VFR   IFR   Intensive IFR   Very Intensive IFR
Visi :
Ceiling :
>= 8 km
>= 3000ft
5 to 8 km
1000 to 3000 ft
1500m to 5 km
500 to 1000 ft
800 to 1500m
200 to 500 ft
< 800m
< 200 ft
Symbols :   Thunderstorms  Fog  Heavy snow  Heavy precipitations  Wind > 20 kt






- Airport Elevation : 1447 ft


KOLU - Columbus Municipal

CURRENT METAR :
  • 171856Z AUTO 06011KT 10SM OVC007 16/14 A3002 RMK AO2 SLP166 T01610144

EXPIRED METARs :
  • 171756Z AUTO 04010KT 10SM OVC007 16/14 A3002 RMK AO2 SLP167 T01610144 10161 20139 58003
  • 171656Z AUTO 05010KT 10SM OVC007 16/14 A3003 RMK AO2 SLP169 T01560139

TAF N/A
KZMP FIR / North America



MET'MAP, your aeronautical weather chart ! - Copyright ORBIFLY December 2007 - Disclaimer

ORBIFLY MET'MAP TEAM :

Programming & Development : Alexandra Zaïnal
Concept & original design : Baudouin d'Aumeries
Assistance for programming : Marc-Olivier Méhu
Technical & hardware support : Manuel Goepfert

Contact : metmap@orbifly.com




SOURCES & CREDITS :

   NOAA       Earth
Advisory